This is the latest recevied weather packets stored in our database for station/object K9ABJ. If no packets are shown the sender has not sent any weather packets the latest 10 day(s).
| Time | Temp. | Humidity | Pressure | Rain* | Wind** | Luminosity | Snow |
|---|---|---|---|---|---|---|---|
| 1788546440 | 27.22° C | 76% | 1017.3 hPa | 0 mm | - | 75 W/m² | - |
| 1788546163 | 27.22° C | 77% | 1017 hPa | 0 mm | - | 296 W/m² | - |
| 1788545830 | 27.22° C | 77% | 1017 hPa | 0 mm | - | 239 W/m² | - |
| 1788545530 | 27.22° C | 76% | 1017.3 hPa | 0 mm | - | 250 W/m² | - |
| 1788545226 | 27.78° C | 75% | 1017.5 hPa | 0 mm | - | 218 W/m² | - |
| 1788544921 | 27.78° C | 76% | 1017.3 hPa | 0 mm | - | 347 W/m² | - |
| 1788544626 | 27.78° C | 75% | 1017.5 hPa | 0 mm | - | 340 W/m² | - |
| 1788544318 | 27.78° C | 75% | 1017.2 hPa | 0 mm | - | 307 W/m² | - |
| 1788544013 | 27.78° C | 74% | 1017.3 hPa | 0 mm | - | 532 W/m² | - |
| 1788543709 | 28.89° C | 73% | 1017.2 hPa | 0 mm | - | 699 W/m² | - |
| 1788543405 | 27.78° C | 74% | 1017.2 hPa | 0 mm | - | 685 W/m² | - |
| 1788543100 | 27.78° C | 77% | 1016.9 hPa | 0 mm | - | 609 W/m² | - |
| 1788542796 | 27.78° C | 76% | 1016.9 hPa | 0 mm | - | 612 W/m² | - |
| 1788542495 | 27.78° C | 74% | 1016.8 hPa | 0 mm | - | 648 W/m² | - |
| 1788542190 | 26.67° C | 75% | 1016.9 hPa | 0 mm | - | 663 W/m² | - |
| 1788541886 | 27.22° C | 77% | 1016.7 hPa | 0 mm | - | 603 W/m² | - |
| 1788541582 | 26.67° C | 81% | 1016.6 hPa | 0 mm | - | 521 W/m² | - |
| 1788541278 | 25.56° C | 83% | 1016.9 hPa | 0 mm | - | 551 W/m² | - |
| 1788540976 | 25.56° C | 87% | 1016.6 hPa | 1.27 mm | - | 169 W/m² | - |
| 1788540676 | 26.11° C | 90% | 1016.8 hPa | 1.27 mm | - | 114 W/m² | - |
| 1788540370 | 26.67° C | 86% | 1017 hPa | 0 mm | - | 133 W/m² | - |
| 1788540067 | 27.22° C | 83% | 1016.9 hPa | 0 mm | - | 207 W/m² | - |
| 1788539778 | 28.33° C | 81% | 1016.9 hPa | 0 mm | - | 313 W/m² | - |
| 1788539462 | 28.33° C | 80% | 1016.8 hPa | 0 mm | - | 184 W/m² | - |
| 1788539156 | 29.44° C | 78% | 1016.7 hPa | 0 mm | - | 201 W/m² | - |
* Rain latest hour (hover to see other rain measurements)
** Current wind speed in m/s (hover to see current wind gust speed)